Regional Weather Roundup
Issued by NWS Wakefield, VA

Home | Current Version | Previous Version | Graphics & Text | Print | Product List | Glossary On
Versions: 1 2 3 4 5 6 7 8 9 10 11 12 13 14 15 16 17 18 19 20 21 22 23 24 25 26 27 28 29 30 31 32 33 34 35 36 37 38 39 40 41 42 43 44 45 46 47 48 49 50
000
ASUS41 KAKQ 031415
RWRAKQ

REGIONAL WEATHER ROUNDUP
NATIONAL WEATHER SERVICE WAKEFIELD VA
1000 AM EDT TUE MAY 03 2016

Note: "fair" indicates few or no clouds below 12,000 feet with no
significant weather and/or obstructions to visibility. * = Denotes
station may not report precipitation (e.g., rain,snow,etc.),
thunder or fog.

VAZ042-051-052>054-056-031500-
NORTHERN VIRGINIA

CITY           SKY/WX    TMP DP  RH WIND       PRES   REMARKS
WASH NATIONAL  CLOUDY    67  60  78 W7        29.80S
DULLES         CLOUDY    64  59  83 N7        29.80S
FORT BELVOIR   FAIR      66  62  86 W6        29.79S
QUANTICO       CLOUDY    66  63  88 N5        29.81R
FREDERICKSBRG* PTSUNNY   66  66 100 CALM      29.80S
STAFFORD*      CLOUDY    64  61  90 W3        29.84S
WARRENTON      FAIR      68  59  72 CALM      29.80S
CULPEPER*      FAIR      67  63  85 CALM      29.81S
MANASSAS*      CLOUDY    66  64  94 CALM      29.80S FOG
LEESBURG*      CLOUDY    63  63 100 NW9       29.83R
WINCHESTER     CLOUDY    61  57  88 CALM      29.82S
FRONT ROYAL*   CLOUDY    61  59  94 CALM      29.81S
LURAY*         CLOUDY    61  61 100 CALM      29.82S
$$

VAZ048-049-060>072-079>083-031500-
CENTRAL AND SOUTH CENTRAL VIRGINIA

CITY           SKY/WX    TMP DP  RH WIND       PRES   REMARKS
RICHMOND       LGT RAIN  65  63  93 VRB5      29.81S
CHESTERFIELD*  CLOUDY    64  54  68 W7        29.83S
PETERSBURG*    LGT RAIN  67  67 100 SW5       29.82F
HANOVER        CLOUDY    65  62  90 SW6       29.82S
TAPPAHANNOCK*  LGT RAIN  66  66  99 SW7       29.81S
QUINTON*       CLOUDY    64  64  97 NW6       29.81S
CHARLOTTSVILLE FAIR      65  61  87 CALM      29.79F
GORDONSVILLE*  CLOUDY    64  62  95 CALM      29.80S
ORANGE*        CLOUDY    64  64 100 CALM      29.81F
LOUISA*        CLOUDY    68  64  88 CALM      29.79F
BUMPASS*       CLOUDY    64  62  94 CALM      29.81S
FARMVILLE*     PTSUNNY   66  65  96 S3        29.78F
CREWE*         CLOUDY    65  65 100 W3        29.82F
FORT PICKETT*  NOT AVBL
CHASE CITY*    CLOUDY    64  62  94 W3        29.82F
CLARKSVILLE*   CLOUDY    64  64 100 CALM      29.82F
SOUTH HILL*    CLOUDY    64  64  97 SW3       29.88F
LAWRENCEVILLE* CLOUDY    65  64  99 SW7       29.83S
EMPORIA*         N/A     64  63  94 S5        29.85S
$$

VAZ088>098-031500-
SOUTHEAST VIRGINIA

CITY           SKY/WX    TMP DP  RH WIND       PRES   REMARKS
NORFOLK        RAIN      67  64  90 SW8       29.82S FOG
VIRGINIA BEACH LGT RAIN  69  63  81 SW6       29.81F
NORFOLK NAVAL  LGT RAIN  67  64  90 SW7       29.83S FOG
WEST POINT*    CLOUDY    66  64  96 SW5       29.82S
SALUDA*        CLOUDY    65  65 100 SW3       29.80S
NEWPORT NEWS   LGT RAIN  66  65  96 SW9       29.82S
LANGLEY AFB    LGT RAIN  66  65  97 SW9       29.81F FOG
FORT EUSTIS    LGT RAIN  66  66 100 VRB5      29.80F
WILLIAMSBURG*  FAIR      66  66 100 SW6       29.82F
HR EXEC AP*      N/A     66  64  94 SW6       29.85S
FRANKLIN*      DRIZZLE   64  63  94 SW6       29.84S
US460-WAKEFLD  LGT RAIN  66  63  90 VRB5      29.82F FOG
$$

VAZ020-022-025-037-045-031500-
WEST CENTRAL AND SOUTHWEST VIRGINIA

CITY           SKY/WX    TMP DP  RH WIND       PRES   REMARKS
STAUNTON*        N/A    N/A N/A N/A CALM      29.84
WAYNESBORO*    FAIR      63  58  84 W3        29.82F
HOT SPRINGS VA LGT RAIN  54  54 100 W9        29.88R VSB 1/4
LYNCHBURG      FAIR      63  60  90 SW6       29.84R
DANVILLE       PTSUNNY   64  61  90 SW5       29.84R
SOUTH BOSTON*  CLOUDY    65  63  95 CALM      29.83S
MARTINSVILLE   PTSUNNY   62  59  91 CALM      29.87S
ROANOKE        PTSUNNY   64  58  80 W6        29.85F
BLACKSBURG     FAIR      61  58  90 W5        29.90F
DUBLIN*        PTSUNNY   64  59  85 NW6       29.88S
MARION*        CLOUDY    60  56  88 SW7       29.91S
HILLSVILLE*    PTSUNNY   59  55  87 NW8       29.88F
RICHLANDS*     CLOUDY    58  56  92 SW3       29.90S
WISE*          CLOUDY    57  55  94 W3        29.92S
ABINGDON*      CLOUDY    61  58  91 W6        29.90S
$$

MDZ021>025-VAZ099-100-031500-
SOUTHERN MARYLAND AND THE DELMARVA PENINSULA

CITY           SKY/WX    TMP DP  RH WIND       PRES   REMARKS
PATUXENT RIVER CLOUDY    66  62  87 NW6       29.79R
BAY BRIDGE APT NOT AVBL
LEONARDTOWN    CLOUDY    64  61  88 CALM      29.81R
DOVER          NOT AVBL
GEORGETOWN     CLOUDY    66  64  93 W5        29.79R
EASTON         CLOUDY   N/A N/A N/A NW5       29.83R FOG
CAMBRIDGE      CLOUDY    63  63 100 W5        29.79R
SALISBURY      CLOUDY    66  64  93 W9        29.79R
OCEAN CITY     CLOUDY    62  61  96 S7        29.79S
WALLOPS ISLAND LGT RAIN  67  64  90 SW7       29.80S
ACCOMACK*      RAIN      64  63  94 SW7       29.81R
$$

NCZ012>017-030>032-031500-
NORTH CENTRAL AND EASTERN NORTH CAROLINA

CITY           SKY/WX    TMP DP  RH WIND       PRES   REMARKS
ROANOKE RAPIDS RAIN      64  64 100 S7        29.84S
RALEIGH        LGT RAIN  66  65  96 SW6       29.85S
ELIZABETH CITY LGT RAIN  66  64  93 SW6       29.85S
AHOSKIE*       RAIN      64  63  97 S3        29.85S
EDENTON*       DRIZZLE   67  67 100 SW6       29.87R
CURRITUCK*     LGT RAIN  66  66 100 SW3       29.84F
KILL DEVIL HLS RAIN      66  66  99 CALM      29.84F
MANTEO         NOT AVBL
CAPE HATTERAS  RAIN      66  65  96 W12G21    29.88F
TARBORO*       DRIZZLE   67  65  96 S3        29.86S
GOLDSBORO      CLOUDY    66  66 100 S6        29.84F
WASHINGTON     LGT RAIN  66  65  97 S5        29.86F
GREENVILLE     LGT RAIN  66  66 100 S7        29.88F
NEW BERN       HVY RAIN  66  64  93 S8        29.89F FOG
WILMINGTON     RAIN      66  65  96 SE6       29.90R FOG
$$

VAZ048-031500-
ELSEWHERE

CITY           SKY/WX    TMP DP  RH WIND       PRES   REMARKS
HARRISBURG PA  CLOUDY    55  52  89 NE7       29.83R
BALTIMORE      FOG       61  59  93 CALM      29.79R VSB 1
ANNAPOLIS      CLOUDY    61  59  93 CALM      29.79S
ANDREWS AFB    FAIR      65  63  95 NW10      29.78S
PHILADELPHIA   DRIZZLE   57  52  83 E9        29.82R FOG
HENDERSON NC   LGT RAIN N/A N/A N/A SW8       29.84F
GREENSBORO     CLOUDY    65  63  93 CALM      29.84S
ROCKY MOUNT    PTSUNNY   67  65  93 S7        29.85S
$$

VAZ100-031500-
MARINE

STATION/POSITION TIME  TEMP    WIND        PRES    WAVE   SWELL
                       AIR SEA DIR/SP/G            HT/PER HT/PER
                 (UTC) (F)     (DEG/KT/KT) (MB)    (FT/S) (FT/S)
BRANDYWINE LGT   1300   60     190/  9/ 10 1008.1F
CAPE MAY NJ      1300   59 58  170/  6/  8 1007.8F
LEWES DE         1300   63 56  190/  4/  5 1007.9F
15NM E FENWICK I 1350   56 53              1008.7R   3/ 6
OCEAN-CITY-INLET 1300   56 55  210/  4/  5 1007.9R
WACHAPREAGUE VA  1300   67 64  250/  4/  5 1008.6R
THOMAS POINT MD  1400   58 58   30/  5/  5 1010.2R
GOOSES REEF MD   1400   60 59  360/  6/  6 1009.9R   0
COVE POINT MD    1300   59     350/  7/  9 1009.0R
SOLOMONS ISLAND  1300   65 61  280/  4/  6   N/A
BISHOPS HEAD MD  1300   63 65  240/  7/  8 1007.8R
PINEY POINT MD   1300          330/  4/  4   N/A
POTOMAC MD       1400   62 60  250/  4/  6 1007.8R   0
CAMBRIDGE MD     1300   64 60  290/  4/  6 1007.6R
LEWISETTA VA     1300   66 62  270/  7/  9 1008.4R
RAPPAHANNOCK LGT 1300          210/  8/  9 1009.6R
STINGRAY PT      1400   65 62  230/  8/ 10 1009.5R   0
YORK RVR RNG VA  1300   65     250/  8/ 10 1008.9R
YORKTOWN VA      1300   66 63  230/  7/ 10 1009.2R
JAMESTOWN VA     1400   66 67  220/  8/ 10   N/A     0
DOMINION TERM VA 1300   65     230/  9/ 11 1009.8R
KIPTOPEKE VA     1300      62  250/ 10/ 12   N/A
CHES BAY BRIDGE  1300   66 60  210/ 12/ 13 1009.3R
CAPE HENRY VA    1300   66     220/  7/ 11   N/A
CHESAPEAKE LGHT  1300   65     240/ 16/ 16 1010.4R
WILLOUBY STN VA  1300   65     220/ 12/ 13 1010.6R
CAPE HENRY BUOY  1312      59                N/A     2/10
CAPE CHARLES BUO 1326      58                N/A     2/ 9   2/ 9
OFFSHORE WE BUOY 1321      56                N/A     3/ 6   2/ 9
64NM E OF VA BCH 1350   60 54  270/ 12/ 14 1009.5F   3/ 6   3/ 6
DUCK PIER NC     1300   67 65  270/ 14/ 17 1010.5R
44100 DUCK FRF   1324      61                N/A     3/ 6
44056 DUCK FRF   1311      58                N/A     2/10
OREGON INLET NC  1300   67 72  250/ 19/ 27 1010.6R
HATTERAS NC      1300   67 70  260/ 18/ 28 1011.8R
DIAMOND SHLS NC  1250   74 73  230/ 21/ 25 1010.8    5/ 6   2/ 9
CAPE LOOKOUT NC  1400   64     280/  7/  9 1012.6F
$$



USA.gov is the U.S. government's official web portal to all federal, state and local government web resources and services.